Regional Weather Roundup
Issued by NWS

Home | Current Version | Previous Version | Graphics & Text | Print | Product List | Glossary On
Versions: 1 2 3 4 5 6 7 8 9 10 11 12 13 14 15 16 17 18 19 20 21 22 23 24 25 26 27 28
000
ASUS45 KTFX 181310
RWRMT
MONTANA REGIONAL WEATHER ROUNDUP
NATIONAL WEATHER SERVICE GREAT FALLS MT
700 AM MDT WED APR 18 2018

NOTE: "FAIR" INDICATES FEW OR NO CLOUDS BELOW 12000 FEET WITH NO
SIGNIFICANT WEATHER AND/OR OBSTRUCTIONS TO VISIBILITY.

MTZ001>007-043-181400-
WEST OF THE DIVIDE

CITY           SKY/WX    TMP DP  RH WIND       PRES   REMARKS
KALISPELL      CLOUDY    34  29  82 S5        30.21S
MISSOULA       MOCLDY    27  22  81 CALM      30.26R
BUTTE          FAIR      21  16  81 CALM      30.21S
MULLAN PASS    CLOUDY    22  21  96 SE5       30.13S FOG
ANACONDA         N/A     21  16  79 SW7       30.22S WCI  13
DEER LODGE       N/A     27  18  69 CALM      30.24R
HAMILTON         N/A     28  21  74 MISG      30.25R
PLAINS           N/A     30  25  82 CALM      30.24R
RONAN            N/A     34  28  80 SE9       30.24  WCI  26
THOMPSON FALLS   N/A     29  27  92 CALM      30.28
$$

MTZ008-052>055-181400-
SOUTHWEST MONTANA

CITY           SKY/WX    TMP DP  RH WIND       PRES   REMARKS
BOZEMAN        FAIR      24  20  84 SE7       30.24R WCI  16
DILLON         FAIR      23  18  81 SW12      30.21R WCI  12
ENNIS          CLOUDY    27  19  74 S8        30.25R WCI  18
W YELLOWSTONE  CLOUDY    12  10  92 CALM      30.22R
THREE FORKS      N/A     24  21  88 CALM      30.19R
TWIN BRIDGES     N/A     25  16  68 NE3       30.18R
$$

MTZ009-010-012-014-046-048-049-054-181400-
EAST SLOPES AND CENTRAL MONTANA

CITY           SKY/WX    TMP DP  RH WIND       PRES   REMARKS
CUT BANK       FAIR      31  22  69 W16       30.12R WCI  20
GREAT FALLS    FAIR      30  20  66 SW13      30.18R WCI  20
HELENA         FAIR      29  20  69 CALM      30.22R
AUGUSTA        FAIR      30  18  60 W8        30.14R WCI  23
BOWMANS CRNR   FAIR      27  20  74 SW10      30.16R WCI  17
CHOTEAU          N/A     28  18  64 SW6       30.16R WCI  22
FAIRFIELD      FAIR      30  19  63 SW12      30.15R WCI  21
POWER          FAIR      29  20  70 SW9       30.16R WCI  20
RAYNESFORD     FAIR      33  17  51 S9        30.18R WCI  25
ULM            FAIR      28  20  72 S7        30.19R WCI  21
WHITE SULPHUR    N/A     23  16  74 SW8       30.19R WCI  14
$$

MTZ011-013-016-021-045-047-050-051-181400-
NORTH CENTRAL MONTANA

CITY           SKY/WX    TMP DP  RH WIND       PRES   REMARKS
HAVRE          FAIR      33  26  75 SW12      30.16R WCI  24
LEWISTOWN      FAIR      29  20  69 SW10      30.18R WCI  20
N BAR RANCH    FAIR      34  14  44 W6        30.19R WCI  29
CHINOOK          N/A     37  28  70 W5        30.16S
GEYSER         FAIR      29  18  61 W9        30.18R WCI  21
GRASS RANGE    FAIR      32  21  65 W5        30.14R
STANFORD       FAIR      31  17  55 W9        30.17R WCI  23
$$

MTZ017>020-022>027-061-062-181400-
NORTHEAST MONTANA

CITY           SKY/WX    TMP DP  RH WIND       PRES   REMARKS
GLASGOW        MOCLDY    34  31  88 NW9       30.12R WCI  27
GLENDIVE       FAIR      35  30  82 W7        30.11R WCI  29
JORDAN           N/A     34  28  79 W7        30.13R WCI  28
MALTA          MOCLDY    36  30  80 W9        30.13R WCI  29
SIDNEY         FAIR      27  27 100 W6        30.11R FOG     WCI  20
WOLF POINT     CLOUDY    26  23  88 W7        30.13R WCI  18
PLENTYWOOD       N/A     30  30 100 CALM      30.11R VSB 1/4
POPLAR           N/A     27  25  93 W5        30.12R
SCOBEY           N/A     18  10  70 SE3       30.09R VSB 0
$$

MTZ028>42-056>058-181400-
SOUTHCENTRAL AND SOUTHEAST MONTANA

CITY           SKY/WX    TMP DP  RH WIND       PRES   REMARKS
BAKER          FAIR      32  31  96 W16       30.11R WCI  21
BILLINGS       FAIR      34  22  61 SW9       30.20R WCI  27
LIVINGSTON     MOCLDY    29  32 100 NW8       30.21R WCI  21
MILES CITY     FAIR      33  30  88 W9        30.14R WCI  25
BIG TIMBER     CLEAR     32  21  64 SW15      30.21R WCI  22
EKALAKA          N/A     31  27  85 W5        30.08R
FORSYTH          N/A     36  28  75 W10       30.17R WCI  28
HARLOWTON      FAIR      29  19  66 NW15      30.18R WCI  17
LAUREL           N/A     37  21  52 VRB6G13   30.22R
$$

REGIONAL REPORTS...DAKOTAS

CITY           SKY/WX    TMP DP  RH WIND       PRES   REMARKS
WILLISTON      CLOUDY    33  32  96 SW6       30.11R FOG     WCI  28
MINOT          PTSUNNY   32  29  88 CALM      30.10S
DICKINSON      CLOUDY    32  31  96 CALM      30.07R FOG
BEACH          FAIR      32  32 100 W8        30.12R WCI  25
CROSBY         CLOUDY    34  34 100 W6        30.11R FOG     WCI  29
TIOGA          FOG       32  32 100 CALM      30.11R VSB<1/4
WATFORD CITY   FOG       32  32 100 CALM      30.10R VSB 3/4
BISMARCK       CLOUDY    34  32  92 CALM      30.13R
GRAND FORKS    FAIR      31  28  89 N7        30.11S WCI  24
FARGO          FAIR      35  29  78 N6        30.07R WCI  30
BUFFALO SD       N/A     31  27  85 W8        30.03R WCI  23
RAPID CITY     FAIR      33  30  88 N8        30.09R WCI  26
$$

REGIONAL REPORTS...WYOMING/IDAHO/WASHINGTON

CITY           SKY/WX    TMP DP  RH WIND       PRES   REMARKS
GILLETTE       FAIR      32  25  75 W13       30.17R WCI  22
SHERIDAN       FAIR      29  22  75 W3        30.21R
BUFFALO WY     FAIR      34  19  54 NW6       30.19R WCI  29
CODY           FAIR      34  16  47 W9        30.20R WCI  27
YELLOWSTONE LA   N/A      8   4  83 CALM      30.24R
IDAHO FALLS    FAIR      25  18  74 SW5       30.26R
SALMON         FAIR      24  22  91 CALM      30.26R
BOISE          FAIR      37  22  54 SE7       30.18S WCI  32
SPOKANE        FAIR      32  29  88 SE9       30.21R WCI  24
$$

REGIONAL REPORTS...ALBERTA

CITY           SKY/WX    TMP DP  RH WIND       PRES   REMARKS
CALGARY        PTCLDY    28  19  69 SE5       30.05R
EDMONTON       CLEAR     30  19  64 W8        30.02R WCI  23
FORT MCMURRAY  CLOUDY    32  27  80 SW15      29.90R WCI  22
HIGH LEVEL     PTCLDY    19  19 100 VRB2      29.88S
LETHBRIDGE     PTCLDY    30  25  80 S14       30.11R WCI  20
LLOYDMINSTER   PTCLDY    30  27  86 SW14      30.03R WCI  20
MEDICINE HAT   PTCLDY    28  27  93 S5        30.13R
MILK RIVER       N/A     30  25  80 W3          N/A
ONEFOUR          N/A     28  25  86 E5          N/A
PEACE RIVER    PTCLDY    18  14  86 CALM      29.95R
PINCHER CREEK  CLEAR     34  23  64 W16G22    30.10S WCI  23
WATERTON GATE    N/A     34  21  60 SW15G24     N/A  WCI  24
$$

REGIONAL REPORTS...SASKATCHEWAN

CITY           SKY/WX    TMP DP  RH WIND       PRES   REMARKS
CORONACH         N/A     18  16  93 NW6         N/A  WCI   9
CYPRESS HILLS    N/A     28  27  93 NE2         N/A
ESTEVAN        CLOUDY    32  32 100 SE3       30.10S FOG
MOOSE JAW        N/A     25  23  93 NW10        N/A  WCI  15
PRINCE ALBERT  MOCLDY    30  28  93 SW5       30.10R FOG
REGINA         FOG       32  32 100 CALM      30.11R VSB 3/8
ROCKGLEN         N/A     30  27  86 NW8         N/A  WCI  23
SASKATOON      PTCLDY    23  21  93 SW6       30.13R WCI  16
SWIFT CURRENT  CLOUDY    32  30  93 W8        30.12R FOG     WCI  25
VAL MARIE        N/A     34  30  86 N8          N/A  WCI  27
$$




USA.gov is the U.S. government's official web portal to all federal, state and local government web resources and services.